GW1174 Weather Reports


time (UTC)temp
C
wind
direction
speed
KPH
gust
KPH
rain 1hr
cm
rain 24hr
cm
rain mn
cm
humidity
%
barometer
mb
20260505140518 21 0 1.6 8.0 0.00 0.00 0.00 57 1005.0
20260505124517 23 0.0 1.6 0.00 0.00 0.00 47 1005.7
20260505123517 23 270 3.2 11.3 0.00 0.00 0.00 46 1005.7
20260505122517 24 293 3.2 8.0 0.00 0.00 0.00 45 1005.9
20260505121518 24 293 3.2 9.7 0.00 0.00 0.00 48 1006.1
20260505120558 23 293 1.6 6.4 0.00 0.00 0.00 46 1006.1
20260505115517 23 158 3.2 11.3 0.00 0.00 0.00 41 1006.2
20260505114517 25 158 3.2 11.3 0.00 0.00 0.00 41 1006.4
20260505113517 24 293 3.2 9.7 0.00 0.00 0.00 39 1006.5
20260505112517 23 270 1.6 3.2 0.00 0.00 0.00 43 1006.4
20260505111517 23 270 3.2 9.7 0.00 0.00 0.00 46 1006.5
20260505110517 22 293 1.6 6.4 0.00 0.00 0.00 48 1006.6
20260505101517 22 0.0 4.8 0.00 0.00 0.00 52 1007.0
20260505100537 22 315 3.2 9.7 0.00 0.00 0.00 52 1007.2
20260505095540 22 248 1.6 4.8 0.00 0.00 0.00 55 1007.2
20260505094517 22 293 1.6 4.8 0.00 0.00 0.00 57 1007.3
20260505093517 22 0.0 6.4 0.00 0.00 0.00 60 1007.4
20260505092517 22 45 1.6 4.8 0.00 0.00 0.00 60 1007.6
20260505091517 21 0.0 6.4 0.00 0.00 0.00 61 1007.6
20260505090517 21 0.0 4.8 0.00 0.00 0.00 60 1007.8
20260505085517 21 0 1.6 4.8 0.00 0.00 0.00 63 1007.9
20260505084517 20 0.0 1.6 0.00 0.00 0.00 64 1008.0
20260505083517 20 45 1.6 4.8 0.00 0.00 0.00 66 1008.0
20260505082517 20 293 1.6 4.8 0.00 0.00 0.00 67 1008.0
20260505081557 19 0.0 3.2 0.00 0.00 0.00 69 1008.1
20260505080537 18 0.0 1.6 0.00 0.00 0.00 71 1008.2
20260505075537 18 0.0 1.6 0.00 0.00 0.00 73 1008.1
20260505074516 18 0.0 4.8 0.00 0.00 0.00 72 1008.2
20260505073516 18 0.0 1.6 0.00 0.00 0.00 72 1008.3
20260505072520 18 0.0 0.0 0.00 0.00 0.00 71 1008.3
20260505071557 18 0.0 1.6 0.00 0.00 0.00 71 1008.4
20260505070517 18 0.0 3.2 0.00 0.00 0.00 72 1008.4
20260505065516 17 0.0 3.2 0.00 0.00 0.00 75 1008.4
20260505064517 16 0.0 0.0 0.00 0.00 0.00 76 1008.4
20260505063517 16 0.0 3.2 0.00 0.00 0.00 76 1008.5
20260505062516 16 0.0 4.8 0.00 0.00 0.00 77 1008.7
20260505061516 16 0.0 1.6 0.00 0.00 0.00 79 1008.5
20260505060536 15 0.0 1.6 0.00 0.00 0.00 80 1008.5
20260505055517 15 0.0 3.2 0.00 0.00 0.00 81 1008.4
20260505054516 14 0.0 1.6 0.00 0.00 0.00 82 1008.7
20260505053556 13 0.0 6.4 0.00 0.00 0.00 83 1008.5
20260505052516 13 0.0 3.2 0.00 0.00 0.00 83 1008.6
20260505051516 13 0.0 1.6 0.00 0.00 0.00 84 1008.5
20260505050516 13 0.0 0.0 0.00 0.00 0.00 84 1008.5
20260505041516 13 0 1.6 8.0 0.00 0.00 0.00 83 1008.5
20260505040516 13 23 1.6 8.0 0.00 0.00 0.00 82 1008.5
20260505035516 13 0.0 1.6 0.00 0.00 0.00 81 1008.6
20260505034536 13 0.0 3.2 0.00 0.00 0.00 81 1008.7
20260505033516 13 0.0 1.6 0.00 0.00 0.00 81 1008.9
20260505032516 13 0 1.6 6.4 0.00 0.00 0.00 81 1008.9
20260505031516 13 23 3.2 8.0 0.00 0.00 0.00 82 1009.1
20260505030516 13 0.0 3.2 0.00 0.00 0.00 82 1009.0
20260505025516 13 0.0 3.2 0.00 0.00 0.00 82 1009.2
20260505024516 13 0.0 1.6 0.00 0.00 0.00 82 1009.4
20260505023516 13 0.0 3.2 0.00 0.00 0.00 81 1009.6
20260505022516 13 0.0 4.8 0.00 0.00 0.00 81 1009.7
20260505021516 13 0.0 0.0 0.00 0.00 0.00 80 1010.0
20260505020536 13 0.0 0.0 0.00 0.00 0.00 79 1009.9
20260505015536 14 293 4.8 12.9 0.00 0.00 0.00 79 1010.0
20260505014516 14 0.0 3.2 0.00 0.00 0.00 80 1009.9
20260505013516 14 23 1.6 4.8 0.00 0.00 0.00 79 1009.7
20260505012516 14 0.0 0.0 0.00 0.00 0.00 79 1009.8
20260505011516 14 0.0 3.2 0.00 0.00 0.00 78 1009.9
20260505010516 14 0.0 0.0 0.00 0.00 0.00 78 1010.1
20260505005536 14 0.0 0.0 0.00 0.00 0.00 78 1010.1
20260505004516 15 0.0 0.0 0.00 0.00 0.00 77 1010.5
20260505003516 15 0.0 6.4 0.00 0.00 0.00 76 1010.4
20260505002516 15 0.0 1.6 0.00 0.00 0.00 76 1010.6
20260505001516 15 0.0 0.0 0.00 0.00 0.00 75 1010.5
20260505000516 15 0.0 0.0 0.00 0.00 0.00 75 1010.7
20260504235515 15 0.0 0.0 0.00 0.00 0.00 74 1010.7
20260504234515 14 0.0 0.0 0.00 0.00 0.00 74 1010.8
20260504233516 14 0.0 0.0 0.00 0.00 0.00 74 1010.8
20260504232537 14 0.0 0.0 0.00 0.00 0.00 74 1010.8
20260504231536 14 0.0 0.0 0.00 0.00 0.00 74 1010.8
20260504230537 14 0.0 1.6 0.00 0.00 0.00 74 1010.9
20260504225518 14 0.0 0.0 0.00 0.00 0.00 74 1010.8
20260504224518 14 0.0 0.0 0.00 0.00 0.00 74 1011.0
20260504223537 14 0.0 1.6 0.00 0.00 0.00 74 1011.0
20260504222518 14 0.0 1.6 0.00 0.00 0.00 74 1010.9
20260504221517 15 0.0 0.0 0.00 0.00 0.00 73 1011.1
20260504220538 15 0.0 1.6 0.00 0.00 0.00 73 1011.0
20260504215516 15 0.0 3.2 0.00 0.00 0.00 72 1011.1
20260504214516 15 0.0 3.2 0.00 0.00 0.00 72 1011.2
20260504213516 15 0.0 0.0 0.00 0.00 0.00 72 1011.2
20260504212516 15 0.0 1.6 0.00 0.00 0.00 70 1011.3
20260504211557 15 0.0 1.6 0.00 0.00 0.00 70 1011.2
20260504210516 16 0.0 0.0 0.00 0.00 0.00 69 1011.4
20260504205516 16 0.0 0.0 0.00 0.00 0.00 68 1011.4
20260504204516 16 0.0 0.0 0.00 0.00 0.00 67 1011.5
20260504203516 16 0.0 0.0 0.00 0.00 0.00 67 1011.4
20260504202516 16 0.0 3.2 0.00 0.00 0.00 66 1011.5
20260504201516 16 0.0 0.0 0.00 0.00 0.00 66 1011.4
20260504200536 16 0.0 1.6 0.00 0.00 0.00 66 1011.4
20260504195517 16 0.0 1.6 0.00 0.00 0.00 65 1011.5
20260504194559 16 0.0 0.0 0.00 0.00 0.00 64 1011.5
20260504193516 17 0.0 0.0 0.00 0.00 0.00 64 1011.5
20260504192516 17 0.0 0.0 0.00 0.00 0.00 63 1011.6
20260504191516 17 0.0 0.0 0.00 0.00 0.00 62 1011.4
20260504190516 17 0.0 0.0 0.00 0.00 0.00 61 1011.5
20260504185516 17 0.0 0.0 0.00 0.00 0.00 61 1011.3
20260504184516 18 0.0 3.2 0.00 0.00 0.00 60 1011.3
20260504183519 18 0.0 0.0 0.00 0.00 0.00 59 1011.2
20260504182516 18 0.0 0.0 0.00 0.00 0.00 58 1011.1
20260504181516 18 0.0 0.0 0.00 0.00 0.00 57 1011.2
20260504180536 19 0.0 3.2 0.00 0.00 0.00 57 1011.2
20260504175556 20 0.0 3.2 0.00 0.00 0.00 55 1011.2
20260504174536 20 293 1.6 3.2 0.00 0.00 0.00 53 1011.1
20260504173516 20 0.0 3.2 0.00 0.00 0.00 51 1011.1
20260504172516 21 293 1.6 6.4 0.00 0.00 0.00 52 1011.1
20260504171516 21 0.0 0.0 0.00 0.00 0.00 50 1011.0
20260504170516 21 0.0 1.6 0.00 0.00 0.00 46 1011.1
20260504150517 22 0.0 4.8 0.00 0.00 0.00 41 1011.7